Hourly Data Report for September 06, 2017

All times are specified in Local Standard Time (LST). Add 1 hour to adjust for Daylight Saving Time where and when it is observed.

KUGLUKTUK A
NUNAVUT

67°49'00.000" N
115°08'38.000" W
22.60 m
2300903
71938
YCO

Download Data

Hourly Data (September 2017)
Hourly Data Report for September 6, 2017
Temp Definition
°C
Dew Point Temp Definition
°C
Rel Hum Definition
%
Wind Dir Definition
10's deg

Wind Spd Definition
km/h
Visibility Definition
km
Stn Press Definition
kPa
Hmdx Definition


Wind Chill Definition


Weather Definition


TIME
00:00 Legend Double Dagger 4.2 4.1 100 7 3 1.6 101.05     Fog
01:00 Legend Double Dagger 3.6 3.6 100 19 9 6.4 101.06     Fog
02:00 Legend Double Dagger 3.8 3.8 100 22 5 0.8 101.06     Fog
03:00 Legend Double Dagger 5.1 5.1 100 28 3 1.2 101.06     Fog
04:00 Legend Double Dagger 5.3 5.2 100 20 4 0.8 101.08     Fog
05:00 Legend Double Dagger 4.3 4.3 100 24 8 0.8 101.07     Fog
06:00 Legend Double Dagger 4.0 4.0 100 21 9 6.4 101.03     Fog
07:00 Legend Double Dagger 3.5 3.5 100 27 4 24.1 101.00     LegendNANA
08:00 Legend Double Dagger 7.2 6.4 95 26 7 24.1 100.94     Mostly Cloudy
09:00 Legend Double Dagger 8.0 7.2 95 36 2 24.1 100.92     LegendNANA
10:00 Legend Double Dagger 8.4 7.1 91 35 7 24.1 100.93     LegendNANA
11:00 Legend Double Dagger 10.6 7.6 82 12 6 24.1 100.86     Mainly Clear
12:00 Legend Double Dagger 13.4 7.6 68 4 6 24.1 100.83     LegendNANA
13:00 Legend Double Dagger 11.9 7.2 73 7 7 24.1 100.81     LegendNANA
14:00 Legend Double Dagger 12.1 7.3 72 12 9 24.1 100.78     Mostly Cloudy
15:00 Legend Double Dagger 12.9 7.2 68 7 7 24.1 100.74     LegendNANA
16:00 Legend Double Dagger 11.5 7.6 77 4 12 24.1 100.70     LegendNANA
17:00 Legend Double Dagger 10.6 8.3 86 4 9 24.1 100.67     Mostly Cloudy
18:00 Legend Double Dagger 10.4 8.0 85 11 11 24.1 100.62     Rain
19:00 Legend Double Dagger 9.1 8.3 95 3 12 24.1 100.61     Rain
20:00 Legend Double Dagger 8.9 7.8 92 4 12 19.3 100.59     Rain
21:00 Legend Double Dagger 8.6 7.9 95 5 14 19.3 100.53     Rain
22:00 Legend Double Dagger 8.3 7.8 97 7 14 19.3 100.49     Rain
23:00 Legend Double Dagger 8.0 7.5 97 3 23 24.1 100.48     Rain

Notes on Data Quality.

Legend

  • E = Estimated
  • M = Missing
  • NA = Not Available
  • ‡ = Partner data that is not subject to review by the National Climate Archives
Date modified: